[[{"header":{"parameterUnit":"m.s-1","parameterCategory":1,"la1":30.2991,"la2":30.254,"lo1":-89.0895,"lo2":-89.0444,"dy":0.0017,"dx":0.0017,"nx":28,"ny":28,"refTime":"2024-06-11T03:00:00:Z","depth":0,"parameterNumber":2,"parameterNumberName":"U-component_of_WINDS"},"data":[0,0,0,0,0,0,0,0,0,0,0,0,0,0,0,0,0,0,0,0,0,0,0,0,0,0,0,0,0,0,0,0,0,0,0,0,0,0,0,0,0,0,0,0,0,0,0,0,0,0,0,0,0,0,0,0,0,0,-2.0984,-2.0983,0,-2.085,-2.0849,-2.0847,-2.0695,-2.0692,-2.069,-2.0688,-2.0552,-2.0551,-2.0549,0,0,0,0,0,0,0,0,0,0,0,0,0,-2.1112,-2.111,-2.0984,-2.0983,-2.0981,-2.0851,-2.0849,-2.0847,-2.0695,-2.0692,-2.0689,-2.0687,-2.0553,-2.0551,-2.0549,0,0,0,0,0,0,0,0,0,0,0,0,0,-2.1025,-2.111,-2.0985,-2.0889,-2.088,-2.0851,-2.0849,-2.0846,-2.0696,-2.0692,-2.0689,-2.0686,-2.0553,-2.0551,-2.0549,-2.0604,0,0,-2.0542,-2.0541,0,0,0,0,0,0,0,0,-2.103,-2.1021,-2.0905,-2.0896,-2.0885,-2.0786,-2.0844,-2.0765,-2.0696,-2.0766,-2.0688,-2.0684,-2.0633,-2.0624,-2.0606,-2.0597,-2.0591,-2.0542,-2.054,-2.054,-2.0539,0,0,0,0,0,0,0,-2.1036,-2.1025,-2.0931,-2.0904,-2.0891,-2.0854,-2.0838,-2.0828,-2.072,-2.0759,-2.0748,-2.0734,-2.0626,-2.0609,-2.0602,-2.0589,-2.0542,-2.054,-2.0539,-2.0538,-2.0621,-2.0625,0,0,0,0,0,0,-2.1056,-2.1031,-2.0936,-2.0927,-2.0951,-2.0855,-2.0837,-2.0821,-2.072,-2.0701,-2.0737,-2.0727,-2.0614,-2.0605,-2.0597,-2.0655,-2.054,-2.0537,-2.0536,-2.0618,-2.0622,-2.0626,0,0,0,0,0,0,-2.106,-2.1049,-2.0941,-2.0976,-2.096,-2.0856,-2.084,-2.082,-2.0802,-2.0703,-2.0683,-2.0738,-2.0611,-2.06,-2.0603,-2.0648,-2.0536,-2.0534,-2.0614,-2.0619,-2.0624,-2.0773,0,0,0,0,0,0,-2.1064,-2.1051,-2.107,-2.0978,-2.0958,-2.095,-2.0842,-2.082,-2.0798,-2.0785,-2.0699,-2.0682,-2.0608,-2.0608,-2.0601,-2.0643,-2.0533,-2.0609,-2.0616,-2.0622,-2.0764,-2.0783,-2.0799,0,0,0,0,0,-2.1069,-2.1117,-2.1072,-2.1061,-2.098,-2.0952,-2.0941,-2.0855,-2.0803,-2.0821,-2.0758,-2.0684,-2.0645,-2.0609,-2.0601,-2.0643,-2.0606,-2.0614,-2.0622,-2.0756,-2.0779,-2.0799,0,0,0,0,0,0,-2.1217,-2.1103,-2.1052,-2.1071,-2.1023,-2.0927,-2.0947,-2.0882,-2.0848,-2.0836,-2.0731,-2.0713,-2.073,-2.0686,-2.0649,-2.0692,-2.0615,-2.0622,-2.072,-2.0741,-2.0758,-2.0768,-2.0531,0,0,0,0,0,-2.1252,-2.1239,-2.114,-2.1167,-2.1145,-2.1052,-2.1036,-2.0974,-2.092,-2.0899,-2.0835,-2.0786,-2.0763,-2.0749,-2.0722,-2.0757,-2.0737,-2.0782,-2.08,-2.0815,-2.0822,-2.084,-2.0859,-2.0652,-2.0652,-2.0652,0,0,-2.1324,-2.126,-2.1258,-2.1195,-2.115,-2.114,-2.1035,-2.1028,-2.102,-2.0897,-2.0897,-2.085,-2.0788,-2.0809,-2.0814,-2.0773,-2.0875,-2.0825,-2.0838,-2.0837,-2.085,-2.087,-2.0887,-2.0658,-2.0657,-2.0656,0,0,-2.145,-2.14,-2.1418,-2.1375,-2.1309,-2.1247,-2.1252,-2.1166,-2.113,-2.1128,-2.1037,-2.1026,-2.0987,-2.0948,-2.0923,-2.1038,-2.0969,-2.1032,-2.1125,-2.1143,-2.116,-2.1174,-2.1216,-2.1232,-2.1039,-2.104,-2.104,0,-2.1548,-2.1528,-2.1435,-2.1435,-2.1411,-2.13,-2.1318,-2.1282,-2.1211,-2.1197,-2.1152,-2.1103,-2.1053,-2.1064,-2.1093,-2.1076,-2.1079,-2.1041,-2.1165,-2.1178,-2.1189,-2.1229,-2.1245,-2.1048,-2.1047,-2.1046,-2.1045,0,-2.1653,-2.1641,-2.1663,-2.1598,-2.1576,-2.1585,-2.1495,-2.1485,-2.1426,-2.1369,-2.137,-2.1307,-2.1267,-2.1265,-2.1206,-2.1268,-2.1245,-2.1184,-2.1104,-2.1219,-2.1254,-2.1268,-2.106,-2.1057,-2.1054,-2.1052,0,0,-2.1866,-2.1751,-2.1761,-2.1731,-2.1651,-2.164,-2.1646,-2.1606,-2.16,-2.1556,-2.1558,-2.153,-2.1474,-2.1446,-2.1382,-2.1399,-2.1496,-2.1335,-2.1332,-2.1369,-2.1563,-2.1609,-2.1628,-2.1451,-2.1453,-2.1455,-2.1568,0,-2.1978,-2.1979,-2.1898,-2.1922,-2.1911,-2.1808,-2.1813,-2.1766,-2.1713,-2.1697,-2.1639,-2.1622,-2.1548,-2.1531,-2.1542,-2.1482,-2.1534,-2.1473,-2.1453,-2.1454,-2.1472,-2.1646,-2.1695,-2.1804,-2.1581,-2.1583,-2.1585,0,-2.2108,-2.2072,-2.2096,-2.2018,-2.201,-2.2016,-2.1974,-2.196,-2.1905,-2.1866,-2.1837,-2.1765,-2.1767,-2.1692,-2.1693,-2.1654,-2.1641,-2.1611,-2.1613,-2.1608,-2.1526,-2.1647,-2.1837,-2.1854,-2.1606,-2.1604,-2.1603,0,-2.2263,-2.2221,-2.223,-2.2207,-2.2116,-2.2123,-2.2085,-2.2027,-2.2009,-2.1974,-2.1961,-2.1927,-2.1908,-2.1883,-2.1805,-2.1758,-2.1817,-2.1735,-2.1785,-2.1788,-2.1802,-2.1802,-2.1994,-2.1794,-2.1794,-2.1793,-2.1793,0,-2.2397,-2.2416,-2.2298,-2.2304,-2.2323,-2.223,-2.2252,-2.2205,-2.2155,-2.215,-2.2059,-2.2058,-2.1954,-2.1941,-2.188,-2.1892,-2.1884,-2.1854,-2.1837,-2.1862,-2.1866,-2.1852,-2.1843,-2.1798,-2.1797,-2.1796,-2.1795,0,-2.2572,-2.2494,-2.2498,-2.2412,-2.2391,-2.2409,-2.2336,-2.2339,-2.2282,-2.2278,-2.2272,-2.2183,-2.2164,-2.2084,-2.2045,-2.2004,-2.2037,-2.2004,-2.2055,-2.2045,-2.21,-2.2097,-2.229,-2.2312,-2.2099,-2.2101,-2.2102,0,-2.2663,-2.2675,-2.2591,-2.2582,-2.2549,-2.2535,-2.2517,-2.2427,-2.2412,-2.2353,-2.2363,-2.2337,-2.2311,-2.2285,-2.2218,-2.2189,-2.2155,-2.2225,-2.215,-2.2176,-2.2157,-2.2158,-2.216,-2.2241,-2.2244,-2.2246,-2.2248,0,-2.2832,-2.2794,-2.2771,-2.2736,-2.2717,-2.2685,-2.2648,-2.2646,-2.2546,-2.2534,-2.2514,-2.2494,-2.2455,-2.2431,-2.2391,-2.2353,-2.2286,-2.2273,-2.2283,-2.2308,-2.2338,-2.2324,-2.21,-2.2268,-2.2266,-2.2265,-2.2264,-2.2263,-2.2968,-2.2975,-2.2918,-2.2897,-2.2859,-2.2827,-2.2827,-2.2771,-2.2752,-2.2713,-2.2662,-2.2649,-2.2596,-2.2536,-2.2504,-2.2493,-2.2455,-2.2469,-2.2473,-2.2478,-2.2491,-2.234,-2.2486,-2.2485,-2.2484,-2.2484,-2.2483,0,-2.3133,-2.3092,-2.3074,-2.3025,-2.3009,-2.2946,-2.2903,-2.2894,-2.2883,-2.284,-2.2817,-2.2795,-2.2772,-2.2704,-2.2674,-2.2679,-2.2647,-2.2674,-2.2673,-2.2666,-2.2527,-2.2521,-2.2701,-2.2701,-2.2701,-2.2701,-2.2701,-2.2701,-2.3217,-2.3227,-2.3183,-2.3174,-2.3132,-2.3118,-2.3099,-2.307,-2.3035,-2.3015,-2.2995,-2.2951,-2.2899,-2.2865,-2.2842,-2.2823,-2.2817,-2.2855,-2.2826,-2.2696,-2.2676,-2.2656,-2.265,-2.2854,-2.2854,-2.2965,-2.2966,-2.2967]},{"header":{"parameterUnit":"m.s-1","parameterCategory":1,"la1":30.2991,"la2":30.254,"lo1":-89.0895,"lo2":-89.0444,"dy":0.0017,"dx":0.0017,"nx":28,"ny":28,"refTime":"2024-06-11T03:00:00:Z","depth":0,"parameterNumber":3,"parameterNumberName":"V-component_of_WINDS"},"data":[0,0,0,0,0,0,0,0,0,0,0,0,0,0,0,0,0,0,0,0,0,0,0,0,0,0,0,0,0,0,0,0,0,0,0,0,0,0,0,0,0,0,0,0,0,0,0,0,0,0,0,0,0,0,0,0,0,0,2.0371,2.0371,0,2.0334,2.0333,2.0333,2.0318,2.0318,2.0318,2.0318,2.0273,2.0272,2.0271,0,0,0,0,0,0,0,0,0,0,0,0,0,2.0425,2.0424,2.0371,2.0371,2.037,2.0334,2.0333,2.0333,2.0318,2.0318,2.0318,2.0318,2.0274,2.0272,2.0271,0,0,0,0,0,0,0,0,0,0,0,0,0,2.0395,2.0423,2.0371,2.0358,2.0357,2.0334,2.0333,2.0333,2.0317,2.0318,2.0318,2.0318,2.0274,2.0272,2.027,2.0256,0,0,2.0265,2.0264,0,0,0,0,0,0,0,0,2.0397,2.0394,2.0361,2.0359,2.0357,2.0331,2.0336,2.0307,2.0317,2.0332,2.0318,2.0318,2.0292,2.0288,2.0281,2.0254,2.0252,2.0264,2.0263,2.0262,2.0262,0,0,0,0,0,0,0,2.0399,2.0395,2.0356,2.036,2.0358,2.0353,2.0349,2.033,2.0311,2.0331,2.033,2.0326,2.0291,2.0283,2.028,2.0251,2.0264,2.0263,2.0262,2.0261,2.021,2.021,0,0,0,0,0,0,2.0404,2.0397,2.0357,2.0355,2.0378,2.0352,2.0347,2.0339,2.0312,2.0308,2.0326,2.0325,2.0286,2.0282,2.0278,2.0259,2.0262,2.0261,2.026,2.021,2.021,2.021,0,0,0,0,0,0,2.0405,2.0401,2.0359,2.0376,2.037,2.0351,2.0341,2.0338,2.033,2.0308,2.0304,2.0321,2.0286,2.0281,2.0262,2.0257,2.026,2.0258,2.021,2.021,2.021,2.0221,0,0,0,0,0,0,2.0407,2.0401,2.0396,2.0376,2.0369,2.0345,2.0341,2.0337,2.0328,2.0327,2.0303,2.0299,2.0286,2.0265,2.026,2.0255,2.0257,2.0211,2.021,2.021,2.0221,2.0221,2.0222,0,0,0,0,0,2.0409,2.04,2.0396,2.0392,2.0363,2.0345,2.0341,2.0328,2.0327,2.0322,2.0308,2.0299,2.0259,2.0263,2.0257,2.0252,2.0211,2.021,2.021,2.0221,2.0221,2.0222,0,0,0,0,0,0,2.0418,2.0397,2.0393,2.0377,2.0363,2.0342,2.0334,2.0328,2.0312,2.0312,2.0295,2.0289,2.0272,2.026,2.0265,2.0236,2.0234,2.0233,2.0245,2.0245,2.0245,2.0248,2.0255,0,0,0,0,0,2.0419,2.0407,2.0388,2.0376,2.037,2.0354,2.0345,2.0336,2.032,2.0314,2.0298,2.0281,2.0265,2.0254,2.0238,2.022,2.0214,2.0213,2.0213,2.0213,2.0212,2.0202,2.0201,2.0208,2.0208,2.0208,0,0,2.0419,2.0406,2.0399,2.0378,2.0366,2.0353,2.0348,2.0334,2.0324,2.0311,2.0293,2.0281,2.0261,2.0243,2.0234,2.0232,2.0209,2.0213,2.0213,2.0211,2.0201,2.02,2.02,2.0208,2.0208,2.0208,0,0,2.0413,2.0402,2.0391,2.038,2.0363,2.0353,2.035,2.0331,2.0323,2.0305,2.0295,2.0282,2.0254,2.024,2.0229,2.022,2.0212,2.0215,2.0216,2.0206,2.0205,2.0205,2.0201,2.02,2.0214,2.0214,2.0214,0,2.0414,2.0396,2.0385,2.0373,2.0364,2.0354,2.0342,2.0331,2.0308,2.0301,2.0301,2.0266,2.0252,2.0231,2.0229,2.0221,2.0216,2.0217,2.0207,2.0206,2.0205,2.0202,2.02,2.0214,2.0214,2.0214,2.0214,0,2.0399,2.0387,2.038,2.0361,2.0351,2.0339,2.0325,2.0316,2.0309,2.0298,2.028,2.0263,2.0243,2.0237,2.0229,2.0215,2.0214,2.021,2.0208,2.0205,2.0202,2.02,2.0215,2.0215,2.0215,2.0215,0,0,2.0396,2.0374,2.0371,2.0363,2.0344,2.0334,2.0321,2.0304,2.0296,2.0281,2.0269,2.0247,2.0244,2.0232,2.0222,2.0214,2.0207,2.0211,2.021,2.021,2.0191,2.0193,2.0192,2.0203,2.0202,2.0202,2.0192,0,2.0387,2.0366,2.0356,2.0339,2.0327,2.0318,2.0306,2.0293,2.0283,2.027,2.0258,2.0243,2.024,2.0233,2.0224,2.021,2.0203,2.0211,2.019,2.0189,2.0195,2.019,2.0193,2.0184,2.0191,2.019,2.019,0,2.0373,2.0362,2.0343,2.0327,2.0322,2.0312,2.0296,2.0285,2.0269,2.0262,2.025,2.0242,2.0226,2.0226,2.0205,2.021,2.0201,2.0193,2.0192,2.0189,2.0189,2.0186,2.0181,2.018,2.0188,2.0188,2.0188,0,2.0373,2.0352,2.0338,2.0332,2.0312,2.0306,2.0297,2.0282,2.0273,2.0259,2.0252,2.0236,2.0226,2.0213,2.02,2.0201,2.0179,2.0178,2.0172,2.0172,2.0167,2.0167,2.016,2.0162,2.0162,2.0162,2.0162,0,2.0363,2.0352,2.0338,2.033,2.0317,2.0306,2.0293,2.0284,2.0271,2.0259,2.025,2.0239,2.0223,2.0209,2.0198,2.0182,2.0178,2.0171,2.0168,2.0172,2.0172,2.0165,2.0165,2.0162,2.0162,2.0162,2.0162,0,2.036,2.035,2.0335,2.0319,2.0315,2.0306,2.0292,2.0283,2.0273,2.0259,2.0255,2.0239,2.0223,2.0209,2.0187,2.018,2.0163,2.016,2.0169,2.0167,2.0162,2.0163,2.0149,2.0146,2.0151,2.0151,2.0151,0,2.0354,2.0346,2.033,2.0323,2.0315,2.0303,2.0295,2.0284,2.0275,2.0258,2.025,2.0234,2.0221,2.0196,2.0181,2.0164,2.016,2.0157,2.0157,2.0161,2.016,2.016,2.0159,2.0156,2.0156,2.0156,2.0156,0,2.0345,2.0341,2.033,2.0317,2.0308,2.0297,2.0285,2.0279,2.0266,2.0256,2.0241,2.0231,2.0211,2.0194,2.0177,2.0166,2.0158,2.0157,2.0154,2.0157,2.0163,2.016,2.0169,2.0156,2.0156,2.0156,2.0156,2.0156,2.0339,2.0332,2.032,2.0308,2.0299,2.0289,2.028,2.0271,2.0259,2.0242,2.0236,2.0221,2.0206,2.0182,2.0172,2.0158,2.0157,2.0153,2.0152,2.0152,2.0152,2.0166,2.0155,2.0155,2.0155,2.0155,2.0155,0,2.0329,2.0322,2.0311,2.0297,2.0287,2.0284,2.0272,2.0263,2.0251,2.0239,2.0227,2.0209,2.0194,2.018,2.0163,2.0156,2.0152,2.0152,2.0151,2.0149,2.0155,2.0158,2.0155,2.0155,2.0155,2.0155,2.0155,2.0155,2.0323,2.031,2.0305,2.0288,2.028,2.0266,2.026,2.025,2.0241,2.0223,2.0211,2.0203,2.0189,2.0172,2.0158,2.0154,2.0148,2.0149,2.0144,2.0149,2.0149,2.0149,2.0152,2.0148,2.0148,2.0139,2.0139,2.0139]}]]